When you browse on this site, cookies collect data to enhance your experience and personalize the content and advertising you see.
Visit our Privacy Policy to learn more. By continuing to use the site, you agree to this use of cookies and data.
  • En España
  • Lista de países
  • Para 7 días
  • Temperatura del agua
  • El tiempo en el mapa
  • Informadores
  • user-avatar
    Iniciar sesión

    Tiempo cada hora Praha

    Hoy, 2 Junio, Martes

    Tiempo Temperatura Precipitaciones Viento Presión Humedad
    00:00 +12°C° 0 mm 1 mps 745 mmHg 83%
    01:00 +12°C° 0 mm 1 mps 745 mmHg 84%
    02:00 +12°C° 0 mm 1 mps 745 mmHg 86%
    03:00 +11°C° 0 mm 1 mps 745 mmHg 87%
    04:00 +11°C° 0 mm 1 mps 745 mmHg 88%
    05:00 +13°C° 0 mm 2 mps 745 mmHg 84%
    06:00 +14°C° 0 mm 2 mps 745 mmHg 80%
    07:00 +16°C° 0 mm 3 mps 745 mmHg 73%
    08:00 +17°C° 0 mm 4 mps 745 mmHg 68%
    09:00 +18°C° 0 mm 4 mps 744 mmHg 62%
    10:00 +20°C° 0 mm 4 mps 744 mmHg 57%
    11:00 +20°C° 0.1 mm 5 mps 744 mmHg 57%
    12:00 +21°C° 0.1 mm 5 mps 744 mmHg 57%
    13:00 +21°C° 0.1 mm 5 mps 744 mmHg 57%
    14:00 +21°C° 0.1 mm 5 mps 743 mmHg 56%
    15:00 +21°C° 0.1 mm 5 mps 742 mmHg 56%
    16:00 +22°C° 0.1 mm 5 mps 741 mmHg 56%
    17:00 +20°C° 0.6 mm 4 mps 741 mmHg 63%
    18:00 +19°C° 0.6 mm 4 mps 741 mmHg 71%
    19:00 +18°C° 0.6 mm 3 mps 740 mmHg 79%
    20:00 +17°C° 0.5 mm 3 mps 740 mmHg 81%
    21:00 +16°C° 0.5 mm 3 mps 740 mmHg 84%
    22:00 +14°C° 0.5 mm 3 mps 740 mmHg 86%
    23:00 +13°C° 0.2 mm 3 mps 739 mmHg 88%

    Mañana, 3 Junio, Miércoles

    Tiempo Temperatura Precipitaciones Viento Presión Humedad
    00:00 +14°C° 0.2 mm 2 mps 739 mmHg 89%
    01:00 +13°C° 0.2 mm 2 mps 739 mmHg 90%
    02:00 +13°C° 0 mm 2 mps 739 mmHg 91%
    03:00 +13°C° 0 mm 2 mps 738 mmHg 92%
    04:00 +12°C° 0 mm 2 mps 738 mmHg 92%
    05:00 +14°C° 0 mm 2 mps 737 mmHg 89%
    06:00 +15°C° 0 mm 2 mps 737 mmHg 86%
    07:00 +16°C° 0 mm 3 mps 737 mmHg 83%
    08:00 +18°C° 0 mm 3 mps 737 mmHg 75%
    09:00 +20°C° 0 mm 3 mps 737 mmHg 67%
    10:00 +21°C° 0 mm 3 mps 737 mmHg 60%
    11:00 +22°C° 0.3 mm 3 mps 736 mmHg 58%
    12:00 +22°C° 0.3 mm 3 mps 736 mmHg 56%
    13:00 +24°C° 0.3 mm 3 mps 735 mmHg 54%
    14:00 +24°C° 0.2 mm 3 mps 735 mmHg 55%
    15:00 +24°C° 0.2 mm 3 mps 735 mmHg 56%
    16:00 +24°C° 0.2 mm 2 mps 734 mmHg 56%
    17:00 +21°C° 0.2 mm 2 mps 734 mmHg 63%
    18:00 +20°C° 0.2 mm 2 mps 734 mmHg 70%
    19:00 +19°C° 0.2 mm 2 mps 733 mmHg 77%
    20:00 +17°C° 0 mm 2 mps 733 mmHg 79%
    21:00 +16°C° 0 mm 2 mps 733 mmHg 81%
    22:00 +15°C° 0 mm 2 mps 733 mmHg 83%
    23:00 +14°C° 0 mm 2 mps 733 mmHg 84%

    Pasado mañana, 4 Junio, Jueves

    Tiempo Temperatura Precipitaciones Viento Presión Humedad
    00:00 +14°C° 0 mm 2 mps 732 mmHg 84%
    01:00 +13°C° 0 mm 1 mps 732 mmHg 85%
    02:00 +13°C° 0 mm 1 mps 732 mmHg 86%
    03:00 +12°C° 0 mm 1 mps 731 mmHg 88%
    04:00 +12°C° 0 mm 1 mps 731 mmHg 89%
    05:00 +13°C° 0 mm 1 mps 731 mmHg 86%
    06:00 +14°C° 0 mm 2 mps 731 mmHg 84%
    07:00 +15°C° 0 mm 2 mps 730 mmHg 81%
    08:00 +17°C° 0 mm 2 mps 730 mmHg 75%
    09:00 +18°C° 0 mm 2 mps 730 mmHg 70%
    10:00 +20°C° 0 mm 2 mps 730 mmHg 65%
    11:00 +21°C° 0.1 mm 2 mps 729 mmHg 64%
    12:00 +21°C° 0.1 mm 2 mps 729 mmHg 63%
    13:00 +23°C° 0.1 mm 2 mps 728 mmHg 61%
    14:00 +23°C° 0.3 mm 2 mps 728 mmHg 63%
    15:00 +22°C° 0.3 mm 3 mps 727 mmHg 65%
    16:00 +24°C° 0.3 mm 3 mps 727 mmHg 67%
    17:00 +21°C° 1.1 mm 3 mps 726 mmHg 73%
    18:00 +20°C° 1.1 mm 2 mps 726 mmHg 79%
    19:00 +19°C° 1.1 mm 2 mps 726 mmHg 85%
    20:00 +18°C° 1.6 mm 2 mps 726 mmHg 88%
    21:00 +18°C° 1.6 mm 1 mps 726 mmHg 91%
    22:00 +16°C° 1.6 mm 1 mps 726 mmHg 94%
    23:00 +16°C° 0.9 mm 1 mps 726 mmHg 94%

    5 Junio, Viernes

    Tiempo Temperatura Precipitaciones Viento Presión Humedad
    00:00 +16°C° 0.9 mm 2 mps 726 mmHg 95%
    01:00 +16°C° 0.9 mm 2 mps 726 mmHg 95%
    02:00 +15°C° 0.8 mm 2 mps 726 mmHg 95%
    03:00 +14°C° 0.8 mm 3 mps 726 mmHg 96%
    04:00 +14°C° 0.8 mm 3 mps 726 mmHg 96%
    05:00 +13°C° 0.8 mm 3 mps 727 mmHg 95%
    06:00 +13°C° 0.8 mm 4 mps 728 mmHg 94%
    07:00 +12°C° 0.8 mm 4 mps 728 mmHg 94%
    08:00 +12°C° 0.8 mm 4 mps 729 mmHg 92%
    09:00 +12°C° 0.8 mm 3 mps 729 mmHg 91%
    10:00 +12°C° 0.8 mm 3 mps 730 mmHg 89%
    11:00 +13°C° 0.2 mm 3 mps 730 mmHg 83%
    12:00 +15°C° 0.2 mm 2 mps 731 mmHg 78%
    13:00 +16°C° 0.2 mm 2 mps 731 mmHg 72%
    14:00 +16°C° 0.3 mm 2 mps 731 mmHg 71%
    15:00 +17°C° 0.3 mm 2 mps 732 mmHg 69%
    16:00 +17°C° 0.3 mm 2 mps 732 mmHg 68%
    17:00 +16°C° 0.2 mm 2 mps 732 mmHg 71%
    18:00 +16°C° 0.2 mm 2 mps 732 mmHg 74%
    19:00 +14°C° 0.2 mm 3 mps 732 mmHg 77%
    20:00 +13°C° 0 mm 3 mps 733 mmHg 79%
    21:00 +12°C° 0 mm 3 mps 733 mmHg 80%
    22:00 +10°C° 0 mm 3 mps 734 mmHg 82%
    23:00 +10°C° 0 mm 3 mps 734 mmHg 83%

    6 Junio, Sábado

    Tiempo Temperatura Precipitaciones Viento Presión Humedad
    00:00 +10°C° 0 mm 4 mps 734 mmHg 84%
    01:00 +10°C° 0 mm 4 mps 734 mmHg 85%
    02:00 +10°C° 0 mm 4 mps 734 mmHg 84%
    03:00 +10°C° 0 mm 4 mps 734 mmHg 84%
    04:00 +10°C° 0 mm 4 mps 734 mmHg 83%
    05:00 +12°C° 0 mm 5 mps 734 mmHg 80%
    06:00 +13°C° 0 mm 5 mps 734 mmHg 77%
    07:00 +14°C° 0 mm 6 mps 734 mmHg 74%
    08:00 +15°C° 0 mm 6 mps 735 mmHg 72%
    09:00 +16°C° 0 mm 6 mps 735 mmHg 70%
    10:00 +17°C° 0 mm 6 mps 735 mmHg 68%
    11:00 +19°C° 0 mm 6 mps 735 mmHg 66%
    12:00 +19°C° 0 mm 6 mps 735 mmHg 65%
    13:00 +20°C° 0 mm 6 mps 736 mmHg 63%
    14:00 +20°C° 0.1 mm 6 mps 736 mmHg 63%
    15:00 +21°C° 0.1 mm 5 mps 735 mmHg 63%
    16:00 +21°C° 0.1 mm 5 mps 735 mmHg 62%
    17:00 +20°C° 0.1 mm 4 mps 735 mmHg 67%
    18:00 +20°C° 0.1 mm 3 mps 735 mmHg 72%
    19:00 +19°C° 0.1 mm 2 mps 736 mmHg 76%
    20:00 +18°C° 0.1 mm 2 mps 736 mmHg 78%
    21:00 +17°C° 0.1 mm 2 mps 736 mmHg 81%
    22:00 +16°C° 0.1 mm 1 mps 737 mmHg 83%
    23:00 +16°C° 0.3 mm 1 mps 737 mmHg 86%

    7 Junio, Domingo

    Tiempo Temperatura Precipitaciones Viento Presión Humedad
    00:00 +16°C° 0.3 mm 1 mps 737 mmHg 89%
    01:00 +15°C° 0.3 mm 1 mps 737 mmHg 92%
    02:00 +15°C° 0.6 mm 1 mps 737 mmHg 93%
    03:00 +15°C° 0.6 mm 1 mps 737 mmHg 94%
    04:00 +15°C° 0.6 mm 1 mps 737 mmHg 95%
    05:00 +15°C° 1.8 mm 1 mps 737 mmHg 95%
    06:00 +15°C° 1.8 mm 1 mps 737 mmHg 95%
    07:00 +15°C° 1.8 mm 1 mps 737 mmHg 95%
    08:00 +16°C° 0.5 mm 1 mps 737 mmHg 94%
    09:00 +16°C° 0.5 mm 1 mps 737 mmHg 93%
    10:00 +16°C° 0.5 mm 2 mps 737 mmHg 91%
    11:00 +18°C° 0 mm 2 mps 737 mmHg 85%
    12:00 +19°C° 0 mm 2 mps 736 mmHg 78%
    13:00 +21°C° 0 mm 2 mps 736 mmHg 71%
    14:00 +21°C° 0.3 mm 2 mps 736 mmHg 71%
    15:00 +23°C° 0.3 mm 1 mps 735 mmHg 71%
    16:00 +23°C° 0.3 mm 1 mps 735 mmHg 71%
    17:00 +21°C° 0.9 mm 2 mps 735 mmHg 76%
    18:00 +20°C° 0.9 mm 3 mps 735 mmHg 80%
    19:00 +18°C° 0.9 mm 3 mps 736 mmHg 85%
    20:00 +17°C° 0.1 mm 4 mps 736 mmHg 86%
    21:00 +15°C° 0.1 mm 4 mps 737 mmHg 87%
    22:00 +14°C° 0.1 mm 5 mps 738 mmHg 88%
    23:00 +13°C° 0 mm 5 mps 738 mmHg 88%
    Mostrar más